MAKIL Weather Reports


time (UTC)temp
F
wind
direction
speed
knots
gust
knots
rain 1hr
in
rain 24hr
in
rain mn
in
humidity
%
barometer
mb
20260503234711 42 294 10.4 11.3 0.00 0.00 0.00 94
20260503232710 42 273 10.4 10.4 0.00 0.00 0.00 95
20260503230710 42 274 10.4 11.3 0.00 0.00 0.00 94
20260503224710 42 256 10.4 11.3 0.00 0.00 0.00 93
20260503222710 42 262 11.3 13.0 0.00 0.00 0.00 92
20260503220710 42 271 11.3 13.0 0.00 0.00 0.00 92
20260503214709 42 261 12.2 13.0 0.00 0.00 0.00 92
20260503212710 42 257 12.2 13.9 0.00 0.00 0.00 92
20260503210710 43 249 12.2 13.9 0.00 0.00 0.00 91
20260503204710 43 252 11.3 12.2 0.00 0.00 0.00 91
20260503202709 43 259 11.3 12.2 0.00 0.00 0.00 91
20260503200709 43 257 11.3 12.2 0.00 0.00 0.00 90
20260503194709 43 262 10.4 11.3 0.00 0.00 0.00 90
20260503192709 43 251 11.3 13.0 0.00 0.00 0.00 89
20260503190709 44 258 12.2 14.8 0.00 0.00 0.00 88
20260503184709 44 272 13.0 13.9 0.00 0.00 0.00 89
20260503182709 44 267 13.9 14.8 0.00 0.00 0.00 88
20260503180709 44 260 13.0 13.9 0.00 0.00 0.00 89
20260503174709 44 249 13.0 14.8 0.00 0.00 0.00 88
20260503172715 44 246 14.8 16.5 0.00 0.00 0.00 87
20260503170709 44 247 13.9 16.5 0.00 0.00 0.00 88
20260503150708 45 231 13.0 15.6 0.00 0.00 0.00 87
20260503130708 47 234 12.2 15.6 0.00 0.00 0.00 81
20260503110707 48 234 11.3 16.5 0.00 0.00 0.00 76
20260503080707 46 267 11.3 12.2 0.00 0.00 0.00 84
20260503072707 44 280 7.8 10.4 0.00 0.00 0.00 90
20260503070707 43 288 10.4 12.2 0.00 0.00 0.00 94
20260503054707 42 257 8.7 11.3 0.00 0.00 0.00 93
20260503052707 42 253 12.2 13.0 0.00 0.00 0.00 91
20260503050706 42 266 11.3 12.2 0.00 0.00 0.00 91
20260503044706 42 262 10.4 11.3 0.00 0.00 0.00 93
20260503042706 41 254 13.0 15.6 0.00 0.00 0.00 93
20260503040706 41 250 13.9 15.6 0.00 0.00 0.00 93
20260503034706 42 247 13.0 15.6 0.00 0.00 0.00 92
20260503032706 42 237 13.0 16.5 0.00 0.00 0.00 93
20260503030706 41 244 11.3 14.8 0.00 0.00 0.00 93
20260503024706 41 245 13.0 14.8 0.00 0.00 0.00 93
20260503022706 42 261 13.0 15.6 0.00 0.00 0.00 92
20260503020706 42 226 16.5 19.1 0.00 0.00 0.00 90
20260503014706 42 226 14.8 18.2 0.00 0.00 0.00 90
20260503012706 42 224 14.8 17.4 0.00 0.00 0.00 90
20260503010706 42 224 14.8 19.1 0.00 0.00 0.00 90
20260503002706 43 224 16.5 19.1 0.00 0.00 0.00 89
20260503000706 43 226 14.8 18.2 0.00 0.00 0.00 88